{"data":{"norad_id":67886,"intl_designator":"2026-035H","name":"STARLINK-36390","alt_names":[],"object_type":"PAYLOAD","status":"ACTIVE","operator":null,"country":"US","launch_date":"2026-02-21","launch_site_code":"AFWTR","launch_vehicle":null,"mission":null,"orbit_class":"UNKNOWN","rcs_meters":null,"size_class":null,"mass_kg":null,"dimensions":null,"purposes":["comms"],"wikipedia_slug":null,"has_3d_model":false,"image_url":null,"decayed_at":null,"tle_current":{"epoch":"2026-09-19T02:15:34.313760Z","epoch_age_seconds":184772,"freshness":"STALE","line1":"1 67886U 26035H   26262.09414715  .00014831  00000+0  46062-3 0  9997","line2":"2 67886  97.2851 193.9040 0001846  98.7094 261.4358 15.33458871 33629","mean_motion":15.33458871,"eccentricity":0.0001846,"inclination_deg":97.2851,"raan_deg":193.904,"arg_perigee_deg":98.7094,"mean_anomaly_deg":261.4358,"bstar":0.00046062,"rev_number":3362,"period_min":93.905355222273,"perigee_km":464.23856871054,"apogee_km":466.76524019407,"semimajor_km":6843.6389044523,"source":"CELESTRAK","updated_at":"2026-09-20T09:00:43.696710Z"}}}